Weather History for KJER - August, 2013

Change the Weather History Date:

Thursday, August 15, 2013

  Actual Average Record
Temperature  
Mean Temperature 79 °F 71 °F  
Max Temperature 98 °F 87 °F 103 °F (1992)
Min Temperature 59 °F 55 °F 42 °F (1925)
Degree Days  
Heating Degree Days 0 0  
Month to date heating degree days 0 0  
Since 1 June heating degree days 78 119  
Since 1 July heating degree days 0 12  
Cooling Degree Days 14 6  
Month to date cooling degree days 139 106  
Year to date cooling degree days 660 389  
Since 1 June cooling degree days 645 376  
Growing Degree Days 28 (Base 50)    
Moisture  
Dew Point 36 °F    
Average Humidity 23    
Maximum Humidity 37    
Minimum Humidity 9    
Precipitation  
Precipitation 0.00 in 0.01 in 0.79 in (1979)
Month to date precipitation T 0.12  
Year to date precipitation 2.52 6.72  
Sea Level Pressure  
Sea Level Pressure 29.86 in    
Wind  
Wind Speed 8 mph (NE)    
Max Wind Speed 15 mph    
Max Gust Speed 18 mph    
Visibility 10 miles    
Events      
T = Trace of Precipitation, MM = Missing Value Source: NWS Daily Summary

Daily Weather History Graph

Daily Weather History Graph

Search for Another Location

Airport or City:

Trip Planner

Search our weather history database for the weather conditions in past years. The results will help you decide how hot, cold, wet, or windy it might be!

Date:

Astronomy

Aug. 15, 2013 Rise Set
Actual Time 6:44 AM MDT 8:39 PM MDT
Civil Twilight 6:14 AM MDT 9:09 PM MDT
Nautical Twilight 5:36 AM MDT 9:46 PM MDT
Astronomical Twilight 4:56 AM MDT 10:26 PM MDT
Moon 4:03 PM MDT (8/15) 12:55 AM MDT (8/15)
Length of Visible Light 14h 55m
Length of Day
13h 54m
Waxing Gibbous, 65% of the Moon is Illuminated
Aug 15
Waxing Gibbous
Aug 20
Full
Aug 28
Last Quarter
Sep 5
New
Sep 12
First Quarter

Hourly Weather History & Observations

Time (MDT) Temp. Dew Point Humidity Pressure Visibility Wind Dir Wind Speed Gust Speed Precip Events Conditions
12:53 AM 72.0 °F 28.9 °F 20% 29.86 in 10.0 mi East 8.1 mph - N/A   Clear
1:53 AM 70.0 °F 27.0 °F 20% 29.86 in 10.0 mi East 8.1 mph - N/A   Clear
2:53 AM 66.9 °F 32.0 °F 27% 29.87 in 10.0 mi NE 10.4 mph - N/A   Clear
3:53 AM 66.9 °F 30.0 °F 25% 29.87 in 10.0 mi NE 11.5 mph - N/A   Clear
4:53 AM 68.0 °F 28.0 °F 22% 29.87 in 10.0 mi NE 10.4 mph - N/A   Clear
5:53 AM 64.0 °F 30.9 °F 29% 29.87 in 10.0 mi NE 11.5 mph - N/A   Clear
6:53 AM 59.0 °F 33.1 °F 38% 29.91 in 10.0 mi NE 8.1 mph - N/A   Clear
7:53 AM 66.0 °F 30.9 °F 27% 29.91 in 10.0 mi ENE 8.1 mph - N/A   Clear
8:53 AM 71.1 °F 35.1 °F 27% 29.94 in 10.0 mi East 9.2 mph - N/A   Clear
9:53 AM 77.0 °F 37.9 °F 24% 29.94 in 10.0 mi East 11.5 mph - N/A   Clear
10:53 AM 84.0 °F 37.9 °F 19% 29.92 in 10.0 mi East 12.7 mph - N/A   Clear
11:53 AM 90.0 °F 37.0 °F 15% 29.91 in 10.0 mi ESE 9.2 mph - N/A   Clear
12:53 PM 93.9 °F 37.0 °F 14% 29.88 in 10.0 mi NNE 5.8 mph - N/A   Clear
1:53 PM 95.0 °F 28.9 °F 10% 29.87 in 10.0 mi WNW 3.5 mph - N/A   Clear
2:53 PM 98.1 °F 35.1 °F 11% 29.85 in 10.0 mi North 3.5 mph - N/A   Clear
3:53 PM 97.0 °F 43.0 °F 16% 29.83 in 10.0 mi NW 4.6 mph - N/A   Clear
4:53 PM 95.0 °F 45.0 °F 18% 29.81 in 10.0 mi NW 8.1 mph - N/A   Clear
5:53 PM 93.0 °F 50.0 °F 23% 29.81 in 10.0 mi NW 6.9 mph - N/A   Clear
6:53 PM 93.9 °F 50.0 °F 22% 29.80 in 10.0 mi Calm Calm - N/A   Clear
7:53 PM 84.9 °F 51.1 °F 31% 29.80 in 10.0 mi North 5.8 mph - N/A   Clear
8:53 PM 82.0 °F 33.1 °F 17% 29.80 in 10.0 mi NE 11.5 mph - N/A   Clear
9:53 PM 80.1 °F 33.1 °F 18% 29.82 in 10.0 mi East 10.4 mph - N/A   Clear
11:53 PM 72.0 °F 28.9 °F 20% 29.81 in 10.0 mi East 6.9 mph - N/A   Clear